{"data":{"norad_id":53207,"epoch":"2026-05-25T02:39:00.719136Z","epoch_age_seconds":55618,"freshness":"FRESH","line1":"1 53207U 22084U   26145.11042499 -.00001037  00000+0 -67766-4 0  9999","line2":"2 53207  97.4488 205.0121 0001710 126.2951 233.8434 15.05662720210807","mean_motion":15.0566272,"eccentricity":0.000171,"inclination_deg":97.4488,"raan_deg":205.0121,"arg_perigee_deg":126.2951,"mean_anomaly_deg":233.8434,"bstar":-6.7766e-5,"rev_number":21080,"period_min":95.638948940703,"perigee_km":548.28751581245,"apogee_km":550.6567581373,"semimajor_km":6927.6091369749,"source":"CELESTRAK","updated_at":"2026-05-25T13:38:17.353264Z"}}